Weather History for Lee's Summit, MO

Change the Weather History Date:

Wednesday, November 28, 2012

  Actual Average (KMKC) Record (KMKC)
Temperature  
Mean Temperature 40 °F -  
Max Temperature 52 °F 48 °F 72 °F (1998)
Min Temperature 28 °F 32 °F 25 °F (2003)
Degree Days  
Heating Degree Days 25    
Moisture  
Dew Point 25 °F    
Average Humidity 57    
Maximum Humidity 72    
Minimum Humidity 40    
Precipitation  
Precipitation 0.00 in - - ()
Sea Level Pressure  
Sea Level Pressure 30.33 in    
Wind  
Wind Speed 6 mph (South)    
Max Wind Speed 10 mph    
Max Gust Speed -    
Visibility 10 miles    
Events      
Averages and records for this station are not official NWS values.
T = Trace of Precipitation, MM = Missing Value Source: NWS Daily Summary

Daily Weather History Graph

Daily Weather History Graph

Search for Another Location

Airport:

Trip Planner

Search our weather history database for the weather conditions in past years. The results will help you decide how hot, cold, wet, or windy it might be!

Date:

Astronomy

Nov. 28, 2012 Rise Set
Actual Time 7:14 AM CST 4:56 PM CST
Civil Twilight 6:45 AM CST 5:25 PM CST
Nautical Twilight 6:12 AM CST 5:58 PM CST
Astronomical Twilight 5:40 AM CST 6:30 PM CST
Moon 5:11 PM CST (11/28) 7:12 AM CST (11/28)
Length of Visible Light 10h 40m
Length of Day
9h 41m
Full, 100% of the Moon is Illuminated
Nov 28
Full
Dec 6
Last Quarter
Dec 13
New
Dec 19
First Quarter
Dec 28
Full

Hourly Weather History & Observations

Time (CST) Temp. Windchill Dew Point Humidity Pressure Visibility Wind Dir Wind Speed Gust Speed Precip Events Conditions
12:53 AM 30.9 °F 24.3 °F 19.9 °F 64% 30.35 in 10.0 mi SW 6.9 mph - N/A   Clear
1:53 AM 30.9 °F 24.3 °F 19.9 °F 64% 30.36 in 10.0 mi SW 6.9 mph - N/A   Clear
2:53 AM 30.0 °F 23.2 °F 19.9 °F 66% 30.37 in 10.0 mi SW 6.9 mph - N/A   Clear
3:53 AM 28.9 °F 22.8 °F 19.9 °F 69% 30.38 in 10.0 mi SW 5.8 mph - N/A   Clear
4:53 AM 30.0 °F - 19.9 °F 66% 30.39 in 10.0 mi Calm Calm - N/A   Clear
5:53 AM 30.0 °F 26.5 °F 19.9 °F 66% 30.39 in 10.0 mi WSW 3.5 mph - N/A   Clear
6:53 AM 28.9 °F 25.2 °F 19.9 °F 69% 30.40 in 10.0 mi SW 3.5 mph - N/A   Clear
7:53 AM 28.9 °F 25.2 °F 21.0 °F 72% 30.41 in 10.0 mi SSW 3.5 mph - N/A   Clear
8:53 AM 34.0 °F - 23.0 °F 64% 30.43 in 10.0 mi Calm Calm - N/A   Clear
9:53 AM 39.0 °F - 25.0 °F 57% 30.43 in 10.0 mi Calm Calm - N/A   Clear
10:53 AM 44.1 °F 42.5 °F 26.1 °F 49% 30.43 in 10.0 mi ESE 3.5 mph - N/A   Clear
11:53 AM 48.0 °F - 28.0 °F 46% 30.39 in 10.0 mi South 5.8 mph - N/A   Clear
12:53 PM 50.0 °F - 28.0 °F 43% 30.36 in 10.0 mi South 8.1 mph - N/A   Clear
1:53 PM 52.0 °F - 28.9 °F 41% 30.32 in 10.0 mi SW 10.4 mph - N/A   Clear
2:53 PM 52.0 °F - 28.0 °F 40% 30.31 in 10.0 mi South 10.4 mph - N/A   Clear
3:53 PM 51.1 °F - 28.0 °F 41% 30.30 in 10.0 mi South 10.4 mph - N/A   Clear
4:53 PM 48.0 °F - 28.0 °F 46% 30.28 in 10.0 mi SSE 5.8 mph - N/A   Clear
5:53 PM 45.0 °F 42.6 °F 28.0 °F 52% 30.28 in 10.0 mi SSE 4.6 mph - N/A   Clear
6:53 PM 44.1 °F 40.1 °F 28.0 °F 53% 30.27 in 10.0 mi SSE 6.9 mph - N/A   Clear
7:53 PM 44.1 °F 40.1 °F 28.9 °F 55% 30.26 in 10.0 mi South 6.9 mph - N/A   Clear
8:53 PM 43.0 °F 37.7 °F 28.9 °F 58% 30.24 in 10.0 mi SSE 9.2 mph - N/A   Clear
9:53 PM 41.0 °F 36.4 °F 28.9 °F 62% 30.23 in 10.0 mi South 6.9 mph - N/A   Clear
10:53 PM 42.1 °F 37.1 °F 28.9 °F 60% 30.21 in 10.0 mi South 8.1 mph - N/A   Clear
11:53 PM 41.0 °F 35.2 °F 28.9 °F 62% 30.20 in 10.0 mi South 9.2 mph - N/A   Clear